Riverside March, CA

11:50 AM PDT on May 28, 2017 (GMT -0700)
March Air Reserve Base

Weather History for KRIV - January, 2014

Change the Weather History Date:

Wednesday, January 8, 2014

  Actual Average Record
Temperature  
Mean Temperature 50 °F -  
Max Temperature 66 °F 64 °F 80 °F (2002)
Min Temperature 33 °F 39 °F 31 °F (2013)
Degree Days  
Heating Degree Days 16    
Moisture  
Dew Point 25 °F    
Average Humidity 43    
Maximum Humidity 67    
Minimum Humidity 20    
Precipitation  
Precipitation 0.00 in - - ()
Sea Level Pressure  
Sea Level Pressure 30.06 in    
Wind  
Wind Speed 1 mph (North)    
Max Wind Speed 8 mph    
Max Gust Speed -    
Visibility 10 miles    
Events      
Averages and records for this station are not official NWS values.
T = Trace of Precipitation, MM = Missing Value Source: NWS Daily Summary

Daily Weather History Graph

Daily Weather History Graph

Search for Another Location

Airport or City:

Trip Planner

Search our weather history database for the weather conditions in past years. The results will help you decide how hot, cold, wet, or windy it might be!

Date:

Astronomy

Jan. 08, 2014 Rise Set
Actual Time 6:54 AM PST 4:57 PM PST
Civil Twilight 6:27 AM PST 5:24 PM PST
Nautical Twilight 5:56 AM PST 5:55 PM PST
Astronomical Twilight 5:26 AM PST 6:25 PM PST
Moon 11:43 AM PST (1/8) 12:14 AM PST (1/8)
Length of Visible Light 10h 56m
Length of Day
10h 02m
First Quarter, 57% of the Moon is Illuminated
Jan 8
First Quarter
Jan 15
Full
Jan 23
Last Quarter
Jan 30
New
Feb 6
First Quarter

Hourly Weather History & Observations

Time (PST) Temp. Dew Point Humidity Pressure Visibility Wind Dir Wind Speed Gust Speed Precip Events Conditions
12:55 AM 39.9 °F 21.0 °F 47% 30.07 in 10.0 mi Calm Calm - N/A   Scattered Clouds
1:55 AM 38.1 °F 21.0 °F 50% 30.08 in 10.0 mi Calm Calm - N/A   Mostly Cloudy
2:55 AM 39.4 °F 20.8 °F 47% 30.07 in 10.0 mi Calm Calm - N/A   Mostly Cloudy
3:55 AM 35.1 °F 20.7 °F 56% 30.06 in 10.0 mi Calm Calm - N/A   Mostly Cloudy
4:55 AM 35.8 °F 21.0 °F 55% 30.05 in 10.0 mi Calm Calm - N/A   Mostly Cloudy
5:55 AM 34.9 °F 20.5 °F 56% 30.05 in 10.0 mi Calm Calm - N/A   Mostly Cloudy
6:56 AM 33.6 °F 20.1 °F 58% 30.06 in 10.0 mi Calm Calm - N/A   Mostly Cloudy
7:55 AM 40.5 °F 23.7 °F 51% 30.08 in 10.0 mi Calm Calm - N/A   Mostly Cloudy
8:55 AM 45.9 °F 24.4 °F 43% 30.11 in 10.0 mi Calm Calm - N/A   Mostly Cloudy
9:55 AM 52.2 °F 24.8 °F 35% 30.13 in 10.0 mi Calm Calm - N/A   Mostly Cloudy
10:55 AM 59.2 °F 28.0 °F 31% 30.12 in 10.0 mi ESE 3.5 mph - N/A   Mostly Cloudy
11:55 AM 61.9 °F 27.7 °F 27% 30.08 in 10.0 mi Calm Calm - N/A   Mostly Cloudy
12:55 PM 64.8 °F 26.2 °F 23% 30.04 in 10.0 mi Calm Calm - N/A   Mostly Cloudy
1:55 PM 65.8 °F 24.8 °F 21% 30.01 in 10.0 mi NNE 2.3 mph - N/A   Mostly Cloudy
2:55 PM 66.6 °F 24.6 °F 20% 30.01 in 10.0 mi North 4.6 mph - N/A   Mostly Cloudy
3:55 PM 65.1 °F 26.8 °F 24% 30.03 in 10.0 mi NW 8.1 mph - N/A   Partly Cloudy
4:55 PM 59.4 °F 25.3 °F 27% 30.03 in 10.0 mi West 5.8 mph - N/A   Partly Cloudy
5:55 PM 54.0 °F 24.8 °F 32% 30.04 in 10.0 mi Calm Calm - N/A   Partly Cloudy
6:55 PM 49.5 °F 26.1 °F 40% 30.05 in 10.0 mi Calm Calm - N/A   Scattered Clouds
7:55 PM 45.9 °F 25.0 °F 44% 30.07 in 10.0 mi Calm Calm - N/A   Mostly Cloudy
8:55 PM 45.3 °F 28.2 °F 51% 30.07 in 10.0 mi Calm Calm - N/A   Scattered Clouds
9:55 PM 43.5 °F 28.9 °F 56% 30.08 in 10.0 mi Calm Calm - N/A   Scattered Clouds
10:55 PM 43.3 °F 32.4 °F 65% 30.08 in 10.0 mi Calm Calm - N/A   Mostly Cloudy
11:55 PM 42.1 °F 32.0 °F 67% 30.08 in 10.0 mi Calm Calm - N/A   Mostly Cloudy